| time (UTC) | temp C | wind direction | speed KPH | gust KPH | rain 1hr cm | rain 24hr cm | rain mn cm | humidity % | barometer mb |
| 20260504020148 | 7 | 45 | 0.0 | 0.0 | 0.00 | 0.00 | 0.00 | 58 | 327.5 |
| 20260504015642 | 7 | 46 | 0.0 | 0.0 | 0.00 | 0.00 | 0.00 | 58 | 327.5 |
| 20260504015136 | 7 | 46 | 0.0 | 0.0 | 0.00 | 0.00 | 0.00 | 58 | 327.5 |
| 20260504014630 | 7 | 45 | 0.0 | 0.0 | 0.00 | 0.00 | 0.00 | 58 | 327.6 |
| 20260504014124 | 7 | 44 | 0.0 | 0.0 | 0.00 | 0.00 | 0.00 | 57 | 327.6 |
| 20260504013618 | 7 | 47 | 4.8 | 0.0 | 0.00 | 0.00 | 0.00 | 56 | 327.5 |
| 20260504013112 | 7 | 48 | 3.2 | 0.0 | 0.00 | 0.00 | 0.00 | 57 | 327.5 |
| 20260504012606 | 8 | 48 | 0.0 | 0.0 | 0.00 | 0.00 | 0.00 | 56 | 327.4 |
| 20260504012100 | 8 | 42 | 1.6 | 0.0 | 0.00 | 0.00 | 0.00 | 56 | 327.4 |
| 20260504011554 | 8 | 46 | 0.0 | 0.0 | 0.00 | 0.00 | 0.00 | 57 | 327.5 |
| 20260504011048 | 7 | 49 | 0.0 | 0.0 | 0.00 | 0.00 | 0.00 | 56 | 327.5 |
| 20260504010542 | 7 | 45 | 3.2 | 0.0 | 0.00 | 0.00 | 0.00 | 57 | 327.5 |
| 20260504010036 | 7 | 46 | 3.2 | 0.0 | 0.00 | 0.00 | 0.00 | 57 | 327.4 |
| 20260504005530 | 8 | 47 | 1.6 | 0.0 | 0.00 | 0.00 | 0.00 | 56 | 327.3 |
| 20260504005024 | 7 | 47 | 0.0 | 0.0 | 0.00 | 0.00 | 0.00 | 57 | 327.3 |
| 20260504004518 | 7 | 46 | 0.0 | 0.0 | 0.00 | 0.00 | 0.00 | 58 | 327.3 |
| 20260504004012 | 8 | 49 | 0.0 | 0.0 | 0.00 | 0.00 | 0.00 | 58 | 327.3 |
| 20260504003506 | 8 | 46 | 0.0 | 0.0 | 0.00 | 0.00 | 0.00 | 57 | 327.3 |
| 20260504003000 | 8 | 44 | 0.0 | 0.0 | 0.00 | 0.00 | 0.00 | 56 | 327.2 |
| 20260504002454 | 8 | 46 | 0.0 | 0.0 | 0.00 | 0.00 | 0.00 | 55 | 327.2 |
| 20260504001948 | 9 | 45 | 0.0 | 0.0 | 0.00 | 0.00 | 0.00 | 55 | 327.1 |
| 20260504001442 | 9 | 43 | 0.0 | 0.0 | 0.00 | 0.00 | 0.00 | 53 | 327.1 |
| 20260504000936 | 10 | 45 | 0.0 | 0.0 | 0.00 | 0.00 | 0.00 | 51 | 327.1 |
| 20260504000431 | 9 | 48 | 1.6 | 0.0 | 0.00 | 0.00 | 0.00 | 50 | 327.2 |
| 20260503235924 | 10 | 45 | 0.0 | 0.0 | 0.00 | 0.00 | 0.00 | 51 | 327.2 |
| 20260503235418 | 9 | 47 | 0.0 | 0.0 | 0.00 | 0.00 | 0.00 | 51 | 327.2 |
| 20260503234912 | 9 | 46 | 0.0 | 0.0 | 0.00 | 0.00 | 0.00 | 51 | 327.2 |
| 20260503234406 | 9 | 44 | 0.0 | 0.0 | 0.00 | 0.00 | 0.00 | 53 | 327.2 |
| 20260503233900 | 8 | 48 | 0.0 | 0.0 | 0.00 | 0.00 | 0.00 | 54 | 327.2 |
| 20260503233354 | 8 | 47 | 0.0 | 0.0 | 0.00 | 0.00 | 0.00 | 54 | 327.2 |
| 20260503232848 | 8 | 46 | 0.0 | 0.0 | 0.00 | 0.00 | 0.00 | 53 | 327.2 |
| 20260503232342 | 8 | 44 | 0.0 | 0.0 | 0.00 | 0.00 | 0.00 | 54 | 327.3 |
| 20260503231836 | 8 | 45 | 0.0 | 0.0 | 0.00 | 0.00 | 0.00 | 55 | 327.3 |
| 20260503231330 | 8 | 46 | 0.0 | 0.0 | 0.00 | 0.00 | 0.00 | 55 | 327.2 |
| 20260503230824 | 8 | 48 | 0.0 | 0.0 | 0.00 | 0.00 | 0.00 | 55 | 327.2 |
| 20260503230318 | 8 | 47 | 0.0 | 0.0 | 0.00 | 0.00 | 0.00 | 56 | 327.1 |
| 20260503225812 | 8 | 44 | 0.0 | 0.0 | 0.00 | 0.00 | 0.00 | 56 | 327.0 |
| 20260503225306 | 8 | 44 | 0.0 | 0.0 | 0.00 | 0.00 | 0.00 | 57 | 327.0 |
| 20260503224800 | 8 | 46 | 0.0 | 0.0 | 0.00 | 0.00 | 0.00 | 57 | 327.0 |
| 20260503224254 | 8 | 47 | 0.0 | 0.0 | 0.00 | 0.00 | 0.00 | 56 | 327.0 |
| 20260503223748 | 8 | 45 | 0.0 | 0.0 | 0.00 | 0.00 | 0.00 | 55 | 327.0 |
| 20260503223242 | 9 | 46 | 0.0 | 0.0 | 0.00 | 0.00 | 0.00 | 54 | 327.0 |
| 20260503222736 | 9 | 47 | 0.0 | 0.0 | 0.00 | 0.00 | 0.00 | 54 | 327.0 |
| 20260503222230 | 9 | 45 | 0.0 | 0.0 | 0.00 | 0.00 | 0.00 | 53 | 327.0 |
| 20260503221724 | 9 | 46 | 0.0 | 0.0 | 0.00 | 0.00 | 0.00 | 52 | 327.0 |
| 20260503221218 | 10 | 42 | 0.0 | 0.0 | 0.00 | 0.00 | 0.00 | 51 | 327.0 |
| 20260503220712 | 10 | 45 | 0.0 | 0.0 | 0.00 | 0.00 | 0.00 | 52 | 327.0 |
| 20260503220206 | 10 | 50 | 0.0 | 0.0 | 0.00 | 0.00 | 0.00 | 51 | 327.0 |
| 20260503215700 | 9 | 41 | 3.2 | 0.0 | 0.00 | 0.00 | 0.00 | 52 | 327.0 |
| 20260503215154 | 9 | 45 | 1.6 | 0.0 | 0.00 | 0.00 | 0.00 | 53 | 326.9 |
| 20260503214648 | 9 | 47 | 3.2 | 0.0 | 0.00 | 0.00 | 0.00 | 53 | 326.9 |
| 20260503214142 | 10 | 42 | 0.0 | 0.0 | 0.00 | 0.00 | 0.00 | 53 | 326.8 |
| 20260503213636 | 10 | 47 | 0.0 | 0.0 | 0.00 | 0.00 | 0.00 | 53 | 326.8 |
| 20260503213130 | 10 | 47 | 0.0 | 0.0 | 0.00 | 0.00 | 0.00 | 53 | 326.8 |
| 20260503212624 | 10 | 47 | 1.6 | 0.0 | 0.00 | 0.00 | 0.00 | 52 | 326.8 |
| 20260503212118 | 10 | 46 | 1.6 | 0.0 | 0.00 | 0.00 | 0.00 | 52 | 326.7 |
| 20260503211612 | 10 | 47 | 1.6 | 0.0 | 0.00 | 0.00 | 0.00 | 52 | 326.7 |
| 20260503211106 | 10 | 47 | 0.0 | 0.0 | 0.00 | 0.00 | 0.00 | 51 | 326.7 |
| 20260503210600 | 10 | 46 | 1.6 | 0.0 | 0.00 | 0.00 | 0.00 | 51 | 326.7 |
| 20260503210054 | 10 | 48 | 0.0 | 0.0 | 0.00 | 0.00 | 0.00 | 51 | 326.7 |
| 20260503205548 | 10 | 48 | 0.0 | 0.0 | 0.00 | 0.00 | 0.18 | 51 | 326.7 |
| 20260503205042 | 10 | 45 | 0.0 | 0.0 | 0.00 | 0.00 | 0.18 | 51 | 326.7 |
| 20260503204536 | 10 | 45 | 0.0 | 0.0 | 0.00 | 0.00 | 0.18 | 52 | 326.6 |
| 20260503204030 | 10 | 46 | 0.0 | 0.0 | 0.00 | 0.00 | 0.18 | 51 | 326.6 |
| 20260503203524 | 10 | 47 | 0.0 | 0.0 | 0.00 | 0.00 | 0.18 | 51 | 326.6 |
| 20260503203018 | 10 | 47 | 0.0 | 0.0 | 0.00 | 0.00 | 0.18 | 51 | 326.7 |
| 20260503202512 | 10 | 46 | 0.0 | 0.0 | 0.00 | 0.00 | 0.18 | 50 | 326.7 |
| 20260503202006 | 10 | 46 | 0.0 | 0.0 | 0.00 | 0.00 | 0.18 | 50 | 326.7 |
| 20260503201500 | 10 | 49 | 3.2 | 0.0 | 0.00 | 0.00 | 0.18 | 52 | 326.7 |
| 20260503200954 | 10 | 46 | 1.6 | 0.0 | 0.00 | 0.00 | 0.18 | 53 | 326.7 |
| 20260503200448 | 10 | 49 | 0.0 | 0.0 | 0.00 | 0.00 | 0.18 | 54 | 326.6 |
| 20260503195942 | 10 | 47 | 0.0 | 0.0 | 0.00 | 0.00 | 0.18 | 54 | 326.6 |
| 20260503195436 | 10 | 43 | 0.0 | 0.0 | 0.00 | 0.00 | 0.18 | 55 | 326.6 |
| 20260503194930 | 10 | 45 | 0.0 | 0.0 | 0.00 | 0.00 | 0.18 | 53 | 326.6 |
| 20260503194424 | 10 | 48 | 0.0 | 0.0 | 0.00 | 0.00 | 0.18 | 51 | 326.6 |
| 20260503193918 | 10 | 46 | 0.0 | 0.0 | 0.00 | 0.00 | 0.18 | 53 | 326.6 |
| 20260503193412 | 10 | 45 | 1.6 | 0.0 | 0.00 | 0.00 | 0.18 | 53 | 326.6 |
| 20260503192906 | 10 | 45 | 3.2 | 0.0 | 0.00 | 0.00 | 0.18 | 53 | 326.6 |
| 20260503192400 | 10 | 46 | 0.0 | 0.0 | 0.00 | 0.00 | 0.18 | 55 | 326.6 |
| 20260503191854 | 10 | 50 | 0.0 | 0.0 | 0.00 | 0.00 | 0.18 | 55 | 326.6 |
| 20260503191348 | 10 | 45 | 0.0 | 0.0 | 0.00 | 0.00 | 0.18 | 54 | 326.6 |
| 20260503190842 | 10 | 48 | 0.0 | 0.0 | 0.00 | 0.00 | 0.18 | 54 | 326.5 |
| 20260503190336 | 10 | 46 | 0.0 | 19.3 | 0.00 | 0.00 | 0.18 | 55 | 326.4 |
| 20260503185830 | 10 | 49 | 1.6 | 19.3 | 0.00 | 0.00 | 0.18 | 53 | 326.4 |
| 20260503185324 | 10 | 49 | 0.0 | 0.0 | 0.00 | 0.00 | 0.18 | 57 | 326.4 |
| 20260503184818 | 10 | 50 | 0.0 | 0.0 | 0.00 | 0.00 | 0.18 | 57 | 326.4 |
| 20260503184312 | 10 | 48 | 0.0 | 0.0 | 0.00 | 0.00 | 0.18 | 58 | 326.3 |
| 20260503183806 | 10 | 48 | 0.0 | 0.0 | 0.00 | 0.00 | 0.18 | 57 | 326.3 |
| 20260503183300 | 10 | 51 | 0.0 | 0.0 | 0.00 | 0.00 | 0.18 | 56 | 326.2 |
| 20260503182754 | 10 | 48 | 0.0 | 0.0 | 0.00 | 0.00 | 0.18 | 55 | 326.2 |
| 20260503182248 | 10 | 55 | 0.0 | 0.0 | 0.00 | 0.00 | 0.18 | 55 | 326.2 |
| 20260503181742 | 11 | 49 | 0.0 | 0.0 | 0.00 | 0.00 | 0.18 | 55 | 326.1 |
| 20260503181236 | 11 | 47 | 0.0 | 0.0 | 0.00 | 0.00 | 0.18 | 53 | 326.1 |
| 20260503180730 | 11 | 46 | 0.0 | 0.0 | 0.00 | 0.00 | 0.18 | 53 | 326.0 |
| 20260503180224 | 11 | 48 | 0.0 | 0.0 | 0.00 | 0.00 | 0.18 | 51 | 326.0 |
| 20260503175718 | 11 | 51 | 0.0 | 0.0 | 0.00 | 0.00 | 0.18 | 50 | 326.0 |
| 20260503175212 | 11 | 49 | 0.0 | 0.0 | 0.00 | 0.00 | 0.18 | 48 | 326.0 |
| 20260503174706 | 11 | 52 | 0.0 | 0.0 | 0.00 | 0.00 | 0.18 | 47 | 325.9 |
| 20260503174200 | 11 | 50 | 0.0 | 0.0 | 0.00 | 0.00 | 0.18 | 47 | 325.9 |
| 20260503173654 | 12 | 53 | 0.0 | 0.0 | 0.00 | 0.00 | 0.18 | 47 | 325.8 |
| 20260503173148 | 12 | 53 | 1.6 | 0.0 | 0.00 | 0.00 | 0.18 | 47 | 325.7 |
| 20260503172642 | 12 | 55 | 0.0 | 0.0 | 0.00 | 0.00 | 0.18 | 47 | 325.6 |
| 20260503172136 | 12 | 59 | 1.6 | 0.0 | 0.00 | 0.00 | 0.18 | 46 | 325.4 |
| 20260503171630 | 13 | 58 | 0.0 | 0.0 | 0.00 | 0.00 | 0.18 | 44 | 325.2 |
| 20260503171124 | 14 | 63 | 0.0 | 0.0 | 0.00 | 0.00 | 0.18 | 43 | 324.9 |
| 20260503170618 | 14 | 71 | 0.0 | 0.0 | 0.00 | 0.00 | 0.18 | 42 | 324.9 |
| 20260503170112 | 15 | 73 | 0.0 | 0.0 | 0.00 | 0.00 | 0.18 | 43 | 324.8 |
| 20260503150900 | 15 | 107 | 0.0 | 0.0 | 0.00 | 0.00 | 0.18 | 36 | 325.2 |
| 20260503150354 | 16 | 119 | 1.6 | 0.0 | 0.00 | 0.00 | 0.18 | 33 | 325.2 |
| 20260503140242 | 15 | 28 | 4.8 | 0.0 | 0.00 | 0.00 | 0.18 | 33 | 325.4 |
| 20260503131142 | 15 | 270 | 3.2 | 0.0 | 0.00 | 0.00 | 0.18 | 32 | 325.3 |
| 20260503130636 | 15 | 198 | 3.2 | 0.0 | 0.00 | 0.00 | 0.18 | 32 | 325.2 |
| 20260503130130 | 16 | 264 | 3.2 | 0.0 | 0.00 | 0.00 | 0.18 | 34 | 325.2 |
| 20260503110412 | 14 | 151 | 4.8 | 0.0 | 0.00 | 0.00 | 0.18 | 40 | 325.3 |
| 20260503100300 | 15 | 65 | 0.0 | 0.0 | 0.00 | 0.00 | 0.18 | 38 | 325.1 |
| 20260503090148 | 13 | 264 | 1.6 | 0.0 | 0.00 | 0.00 | 0.18 | 45 | 325.9 |
| 20260503081554 | 12 | 188 | 3.2 | 0.0 | 0.00 | 0.00 | 0.18 | 49 | 326.4 |
| 20260503081048 | 12 | 169 | 1.6 | 0.0 | 0.00 | 0.00 | 0.18 | 53 | 326.4 |
| 20260503080542 | 11 | 224 | 3.2 | 0.0 | 0.00 | 0.00 | 0.18 | 52 | 326.5 |
| 20260503072454 | 11 | 126 | 3.2 | 0.0 | 0.00 | 0.00 | 0.18 | 50 | 326.6 |
| 20260503071948 | 11 | 323 | 4.8 | 0.0 | 0.00 | 0.00 | 0.18 | 51 | 326.5 |
| 20260503071442 | 11 | 193 | 3.2 | 0.0 | 0.00 | 0.00 | 0.18 | 51 | 326.6 |
| 20260503070936 | 11 | 328 | 3.2 | 0.0 | 0.00 | 0.00 | 0.18 | 50 | 326.7 |
| 20260503070430 | 11 | 333 | 3.2 | 0.0 | 0.00 | 0.00 | 0.18 | 52 | 326.6 |
| 20260503060318 | 11 | 233 | 3.2 | 0.0 | 0.00 | 0.00 | 0.18 | 62 | 326.7 |
| 20260503054800 | 11 | 217 | 0.0 | 0.0 | 0.00 | 0.00 | 0.18 | 65 | 326.7 |
| 20260503054254 | 10 | 186 | 0.0 | 0.0 | 0.00 | 0.00 | 0.18 | 66 | 326.7 |
| 20260503053748 | 10 | 149 | 0.0 | 0.0 | 0.00 | 0.00 | 0.18 | 67 | 326.8 |
| 20260503053242 | 10 | 136 | 0.0 | 0.0 | 0.00 | 0.00 | 0.18 | 68 | 326.8 |
| 20260503052736 | 10 | 129 | 3.2 | 0.0 | 0.00 | 0.00 | 0.18 | 68 | 326.8 |
| 20260503052230 | 10 | 122 | 0.0 | 0.0 | 0.00 | 0.00 | 0.18 | 70 | 326.8 |
| 20260503051724 | 10 | 149 | 1.6 | 0.0 | 0.00 | 0.00 | 0.18 | 70 | 326.8 |
| 20260503051218 | 10 | 138 | 0.0 | 0.0 | 0.00 | 0.00 | 0.18 | 72 | 326.8 |
| 20260503050712 | 10 | 104 | 0.0 | 0.0 | 0.00 | 0.00 | 0.18 | 75 | 326.8 |
| 20260503050206 | 9 | 68 | 0.0 | 0.0 | 0.00 | 0.00 | 0.18 | 77 | 326.9 |
| 20260503045700 | 8 | 74 | 0.0 | 0.0 | 0.00 | 0.00 | 0.18 | 79 | 326.9 |
| 20260503045154 | 8 | 76 | 0.0 | 0.0 | 0.00 | 0.00 | 0.18 | 79 | 327.0 |
| 20260503044648 | 8 | 8 | 0.0 | 0.0 | 0.00 | 0.00 | 0.18 | 79 | 327.0 |
| 20260503044142 | 8 | 257 | 0.0 | 0.0 | 0.00 | 0.00 | 0.18 | 80 | 327.1 |
| 20260503043636 | 7 | 256 | 0.0 | 0.0 | 0.00 | 0.00 | 0.18 | 81 | 327.1 |
| 20260503043130 | 7 | 298 | 0.0 | 0.0 | 0.00 | 0.00 | 0.18 | 82 | 327.2 |
| 20260503042624 | 7 | 282 | 0.0 | 0.0 | 0.00 | 0.00 | 0.18 | 81 | 327.3 |
| 20260503042118 | 7 | 256 | 0.0 | 0.0 | 0.00 | 0.00 | 0.18 | 81 | 327.4 |
| 20260503041612 | 7 | 235 | 0.0 | 0.0 | 0.00 | 0.00 | 0.18 | 80 | 327.4 |
| 20260503041106 | 7 | 229 | 0.0 | 0.0 | 0.00 | 0.00 | 0.18 | 80 | 327.5 |
| 20260503040600 | 7 | 238 | 0.0 | 0.0 | 0.00 | 0.00 | 0.18 | 81 | 327.5 |
| 20260503040054 | 7 | 242 | 0.0 | 0.0 | 0.00 | 0.00 | 0.18 | 81 | 327.5 |
| 20260503035548 | 7 | 230 | 0.0 | 0.0 | 0.00 | 0.00 | 0.18 | 81 | 327.5 |
| 20260503035042 | 7 | 219 | 0.0 | 0.0 | 0.00 | 0.00 | 0.18 | 82 | 327.6 |
| 20260503034536 | 7 | 227 | 0.0 | 0.0 | 0.00 | 0.00 | 0.18 | 82 | 327.6 |
| 20260503034030 | 7 | 224 | 0.0 | 0.0 | 0.00 | 0.00 | 0.18 | 82 | 327.5 |
| 20260503033524 | 7 | 192 | 0.0 | 0.0 | 0.00 | 0.00 | 0.18 | 83 | 327.5 |
| 20260503033018 | 7 | 193 | 0.0 | 0.0 | 0.00 | 0.00 | 0.18 | 83 | 327.5 |
| 20260503032512 | 7 | 192 | 0.0 | 0.0 | 0.00 | 0.00 | 0.18 | 83 | 327.5 |
| 20260503032006 | 7 | 196 | 0.0 | 0.0 | 0.00 | 0.00 | 0.18 | 83 | 327.5 |
| 20260503031500 | 7 | 187 | 0.0 | 0.0 | 0.00 | 0.00 | 0.18 | 83 | 327.5 |
| 20260503030954 | 6 | 192 | 0.0 | 0.0 | 0.00 | 0.00 | 0.18 | 83 | 327.5 |
| 20260503030448 | 6 | 187 | 0.0 | 0.0 | 0.00 | 0.00 | 0.18 | 83 | 327.6 |
| 20260503025942 | 6 | 197 | 0.0 | 0.0 | 0.00 | 0.00 | 0.18 | 83 | 327.5 |
| 20260503025436 | 6 | 205 | 0.0 | 0.0 | 0.00 | 0.00 | 0.18 | 83 | 327.6 |
| 20260503024930 | 6 | 201 | 0.0 | 0.0 | 0.00 | 0.00 | 0.18 | 82 | 327.6 |
| 20260503024424 | 6 | 194 | 0.0 | 0.0 | 0.00 | 0.00 | 0.18 | 82 | 327.6 |
| 20260503023918 | 6 | 192 | 0.0 | 0.0 | 0.00 | 0.00 | 0.18 | 82 | 327.6 |
| 20260503023412 | 6 | 192 | 0.0 | 0.0 | 0.00 | 0.00 | 0.18 | 82 | 327.7 |
| 20260503022906 | 6 | 194 | 0.0 | 0.0 | 0.00 | 0.00 | 0.18 | 81 | 327.7 |
| 20260503022400 | 6 | 188 | 0.0 | 0.0 | 0.00 | 0.00 | 0.18 | 81 | 327.7 |
| 20260503021854 | 6 | 188 | 0.0 | 0.0 | 0.00 | 0.00 | 0.18 | 81 | 327.8 |
| 20260503021348 | 6 | 190 | 0.0 | 0.0 | 0.00 | 0.00 | 0.18 | 81 | 327.8 |
| 20260503020842 | 6 | 192 | 0.0 | 0.0 | 0.00 | 0.00 | 0.18 | 82 | 327.8 |
| 20260503020336 | 6 | 204 | 0.0 | 0.0 | 0.00 | 0.00 | 0.18 | 82 | 327.8 |